Gallatin Field Bozeman US
ICAO: KBZN
IATA: BZN
Category: Medium
Scheduled Services: Yes

Elevation: 4473 ft
TransAlt. 18000 ft.

Airport Communications:
ATIS:135.425
SALT LAKE CITY CNTR:132.4
CTAF:118.2
GND:121.8
GREAT FALLS RDO:122.5
BOZEMAN TWR:118.2
UNICOM:122.95

KBZN Zoom In..

Runways:

(A) RW 03 length 2650 ft width 75 ft
---- / hdg 33

(B) RW 11 length 3197 ft width 80 ft
---- / hdg 122

(C) RW 12 length 8994 ft width 150 ft
ILS 109.30 / hdg 123

(D) RW 21 length 2650 ft width 75 ft
---- / hdg 213

(E) RW 29 length 3197 ft width 80 ft
---- / hdg 302

(F) RW 30 length 8994 ft width 150 ft
---- / hdg 303

Location; KBZN
Day. 20 / Time. 09.56 Zulu
* Altimeter: 30.09
* Temperature: 01° c. 33.8°f.
* Wind from: 180° Speed 07 kn.
Dewpoint: -03° c.
Visibility: 10 Statute Miles.
Clouds: Clear (automated report).

KBZN 200956Z AUTO 18007KT 10SM CLR 01/M03 A3009 RMK AO2 SLP190 T00111028


Wind From 180°
Speed 07 kn.

  YouTube Music Video
 
jpsmedia.com for Web Design  worldairports.se 2018   terms of use